Regional Weather Roundup
Issued by NWS

Home | Current Version | Previous Version | Text Only | Print | Product List | Glossary On
Versions: 1 2 3 4 5 6 7 8 9 10 11 12 13 14 15 16 17 18 19 20 21 22 23 24 25 26 27 28 29 30 31 32 33 34 35 36 37 38 39 40 41 42 43 44 45 46 47 48 49 50
000
ASUS44 KEWX 171910
RWRTX
SOUTH TEXAS REGIONAL WEATHER ROUNDUP
NATIONAL WEATHER SERVICE AUSTIN/SAN ANTONIO TX
200 PM CDT WED SEP 17 2014

NOTE: "FAIR" INDICATED FEW OR NO CLOUDS BELOW 12,000 FEET WITH NO
SIGNIFICANT WEATHER AND/OR OBSTRUCTIONS TO VISIBILITY.

* - THESE STATIONS ARE NOT NWS OR FAA STATIONS...AND ARE NOT SUBJECT
    TO NWS AND FAA QUALITY CONTROL.

TXZ171-172-183>190-172000-
TEXAS HILL COUNTRY AND EDWARDS PLATEAU

CITY           SKY/WX    TMP DP  RH WIND       PRES   REMARKS
JUNCTION       MOSUNNY   89  67  47 CALM      29.95F HX  92
*LLANO         MOSUNNY   91  70  49 S7        29.96F HX  97
BURNET         MOSUNNY   89  67  47 VRB3      29.96F HX  92
*HORSESHOE BAY CLOUDY    85  70  59 NE3       29.94F HX  90
*KERRVILLE     CLOUDY    85  72  65 SE7       29.96F HX  90
*FREDERICKSBRG PTSUNNY   79  71  74 SE8       29.97F
*ROCKSPRINGS   PTSUNNY   86  68  54 SE9       30.01F
*BOERNE STAGE  PTSUNNY   77  72  83 S3        29.97F
*CASTROVILLE   RAIN      82  73  72 W5        29.94F
HONDO          CLOUDY    85  71  63 SE8       29.95F HX  90
*UVALDE        CLOUDY    82  74  78 SE7       29.94F
DEL RIO        CLOUDY    87  72  60 VRB3      29.91F HX  93
LAUGHLIN AFB   MOSUNNY   87  73  64 VRB2      29.92F HX  94
CARRIZO SPRGS  CLOUDY    88  72  58 E5        29.89F HX  94
$$

TXZ173-191>194-202-209-217>225-228-172000-
CENTRAL AND SOUTH CENTRAL TEXAS

CITY           SKY/WX    TMP DP  RH WIND       PRES   REMARKS
GEORGETOWN     MOSUNNY   90  70  51 SE6       29.93F HX  95
AUSTIN/BERGSTM LGT RAIN  81  76  84 NE8       29.92F
AUSTIN/MABRY   PTSUNNY   88  74  63 SE8       29.93F HX  96
*AUSTIN/EXEC   PTSUNNY   88  72  58 S5        29.93F HX  94
*LAGO VISTA    PTSUNNY   88  70  55 S3        29.95F HX  92
SAN MARCOS     PTSUNNY   88  70  55 SW14      29.92F HX  92
NEW BRAUNFELS  PTSUNNY   89  71  55 S10       29.91F HX  95
RANDOLPH AFB   PTSUNNY   88  71  58 SW7       29.92F HX  93
PT SAN ANTONIO PTSUNNY   88  73  60 S8        29.91F HX  96
SAN ANTONIO    CLOUDY    86  71  60 S7        29.93F HX  91
STINSON FIELD  PTSUNNY   86  74  67 W3        29.90F HX  94
*PLEASANTON    PTSUNNY   90  70  51 SW5       29.91F HX  95
*LA GRANGE     MOSUNNY   89  75  65 S6        29.90F HX  99
*GIDDINGS      PTSUNNY   85  73  67 SW6       29.96F HX  92
*GONZALES      PTSUNNY   89  75  63 W6        29.90F HX  98
$$

TXZ163>164-176>182-195>201-210>213-226-227-235-172000-
SOUTHEAST TEXAS

CITY           SKY/WX    TMP DP  RH WIND       PRES   REMARKS
COLLEGE STN    SUNNY     87  72  60 CALM      29.92F HX  93
*BRYAN         CLOUDY    87  74  64 S6        29.92F HX  96
*CALDWELL      SUNNY     88  73  62 CALM      29.95F HX  96
*CROCKETT      SUNNY     90  75  62 S5        29.97F HX 100
*BRENHAM       MOSUNNY   90  74  60 SW3       29.92F HX  99
HUNTSVILLE     PTSUNNY   85  73  67 CALM      29.93F HX  91
CONROE         MOSUNNY   87  74  64 SE8       29.93F HX  95
HOUSTON BUSH   CLOUDY    87  73  62 CALM      29.93F HX  94
HOUSTON HOBBY  TSTM      76  73  91 N9        29.93S FOG
*HOUSTON SW AP TSTM      80  74  82 SW5       29.94S
PEARLAND       TSTM      75  72  90 NE14      29.97R VSB 1/2
HOUSTON HOOKS  PTSUNNY   86  75  69 CALM      29.93F HX  95
ELLINGTON FLD  TSTM      84  79  84 E6        29.95F HX  96
SUGAR LAND     TSTM      76  73  91 S6        29.94R VSB 1/2
*HOUSTON EXEC  PTSUNNY   86  86 100 N5        29.93F HX 112
*CLEVELAND MUN PTSUNNY   88  76  68 E3        29.94F HX  99
*WHARTON       CLOUDY    85  74  68 S3        29.92F HX  93
$$

TXZ214>216-236>238-172000-
THE UPPER TEXAS COAST

CITY           SKY/WX    TMP DP  RH WIND       PRES   REMARKS
*ORANGE        PTSUNNY   83  76  79 S14       29.96F HX  90
PORT ARTHUR    TSTM      78  76  93 S7        29.94F
GALVESTON      RAIN      76  75  97 N7        29.95F FOG
ANGLETON       PTSUNNY   81  77  88 CALM      29.92F
*BAY CITY      MOSUNNY   85  78  78 S5        29.92F HX  97
PALACIOS       MOSUNNY   86  77  74 S10       29.91F HX  97
$$

TXZ229>234-239>247-172000-
TEXAS COASTAL BEND AND RIO GRANDE PLAINS

CITY           SKY/WX    TMP DP  RH WIND       PRES   REMARKS
VICTORIA       MOSUNNY   94  72  48 W7        29.90F HX 102
*BEEVILLE      MOSUNNY   91  69  47 S7        29.90F HX  96
ROCKPORT       MOSUNNY   91  74  57 S10       29.90F HX 100
*PORT ARANSAS  MOSUNNY   87  75  67 S12       29.91F HX  97
*PORT LAVACA   MOSUNNY   89  75  64 SW8       29.90F HX  99
*INGLESIDE     MOSUNNY   93  72  50 S9        29.90F HX 100
CORPUS CHRISTI PTSUNNY   90  75  61 S13       29.90F HX 100
CORPUS NAS     PTSUNNY   89  78  70 S15       29.90F HX 103
*ROBSTOWN      MOSUNNY   91  73  54 S9        29.90F HX 100
ALICE          MOSUNNY   92  72  51 S8        29.89F HX  99
KINGSVILLE NAS PTSUNNY   92  75  57 S6G18     29.89F HX 103
COTULLA        PTSUNNY   92  71  50 VRB3      29.90F HX  98
*FAITH RANCH   PTSUNNY   88  73  62 SE6       29.92F HX  96
LAREDO         PTSUNNY   92  73  53 S9        29.92F HX 100
$$

TXZ248>255-172000-
DEEP SOUTH TEXAS

CITY           SKY/WX    TMP DP  RH WIND       PRES   REMARKS
BROWNSVILLE    MOSUNNY   90  78  68 S9        29.90F HX 104
PORT ISABEL    MOSUNNY   89  74  60 S14G21    29.89F HX  98
*SOUTH PADRE   MOSUNNY   90  77  66 S13       29.91F HX 102
HARLINGEN      MOSUNNY   92  76  59 S13       29.89F HX 104
*HEBBRONVILLE    N/A     89  68  50 S8        29.92F HX  93
MCALLEN        SUNNY     89  75  63 SE14      29.90F HX  99
*WESLACO       MOSUNNY   89  74  59 S10G17    29.89F HX  98
FALFURRIAS     MOSUNNY  N/A N/A N/A S7        29.89F
EDINBURG       MOSUNNY   92  72  51 S12G18    29.90F HX  99
*ZAPATA        MOSUNNY   92  67  44 S9        29.89F HX  95
$$

TXZ213>215-236>238-242>244-246-247-251-254-255-172000-
CMAN STATIONS

STATION/POSITION TIME  TEMP    WIND        PRES    WAVE
                       AIR SEA DIR/SP/G            HT/PER
                 (UTC) (F)     (DEG/KT/KT) (MB)    (FT/S)
SABINE PASS      1900   76 83  200/  4/  5 1014.5
SEA RIM ST PARK  1900   77     120/  9/ 11 1014.6
NORTH JETTY/GLS  1900   81 84   90/  9/ 10   N/A
EAGLE POINT      1900   80 83  220/ 11/ 17 1014.3
MORGANS POINT    1900   80      90/  8/ 11 1013.5
MISSION/ARANSAS  1800           90/  2     1015.0
PORT O`CONNOR    1900          220/  9/ 10   N/A
PORT ARANSAS     1900   83 85  170/ 12/ 13 1013.5
MALAQUITE BEACH  1900   83 85  160/ 12/ 14 1012.2
BAFFIN BAY       1900   85 85  160/  8/ 11 1012.6
PORT ISABEL      1900   86 83  140/ 16/ 20 1013.1
$$

GMZ080-GMZ150>470-172000-
OFFSHORE BUOY REPORTS

STATION/POSITION TIME  TEMP    WIND        PRES    WAVE
                       AIR SEA DIR/SP/G            HT/PER
                 (UTC) (F)     (DEG/KT/KT) (MB)    (FT/S)
20 E GALVESTON   1900   81 84   90/  4/  6 1014.1    1/ 5
90 E PT ARANSAS  1900   83 85  230/ 10/ 12 1014.0    2/ 7
35 NE PT MANSFLD 1900   83 85  200/  8/ 10 1012.6    2/ 5
200 E PT ISABEL  1900   85 86  210/  8/ 12 1013.6    2/ 6
$$



USA.gov is the U.S. government's official web portal to all federal, state and local government web resources and services.